Wind_Speed
30 29 30 30 30 29 28 27 28 28 27 25 24 23 22 20 19 18 18 16 13 13 14 16 18 18 18 19 20 21 21 21 21 19 18 18 17 17 17 16 15 14 13 13 13 12 12 11 10 10 10 10 9 8 8 7 5 4 5 5 3 4 5 5 5 6 8 9 12 14 15 18 20 21 23 26 29 30 31 31 31 31 30 29 29
31 30 31 30 29 28 27 27 28 29 28 26 24 24 23 20 17 16 17 15 12 13 15 17 18 18 19 19 20 21 21 21 21 20 19 19 18 18 18 17 16 14 14 14 13 13 12 11 10 9 9 9 8 8 8 7 3 2 4 4 4 4 5 6 8 9 11 11 13 15 15 18 20 21 22 25 29 30 31 31 31 31 30 30 29
32 31 30 30 28 27 27 28 28 29 28 26 23 23 22 19 16 17 17 16 14 15 16 18 19 19 19 20 21 22 22 22 21 21 20 19 19 19 19 18 16 15 14 14 13 12 12 11 10 9 9 8 8 7 8 7 5 3 3 3 3 4 4 6 8 10 11 13 14 15 17 18 20 21 23 25 28 29 30 31 30 30 30 30 30
32 32 30 30 29 28 30 31 30 29 27 26 24 22 21 19 17 18 18 17 15 17 18 18 19 20 20 21 22 22 23 22 22 22 21 20 20 20 19 18 16 15 14 13 12 12 12 11 10 10 9 9 9 8 7 7 5 3 3 2 2 2 3 6 7 8 11 13 14 14 16 18 19 21 23 25 27 28 29 30 30 31 31 30 30
32 32 32 31 30 30 32 32 31 29 26 27 25 23 22 20 18 18 18 17 17 18 19 19 20 21 21 22 22 23 23 23 23 22 21 21 21 20 19 17 16 16 15 14 13 12 12 12 11 10 10 10 9 8 7 5 5 4 2 1 2 2 3 5 6 7 9 12 13 14 15 16 18 21 23 25 27 28 29 29 29 30 31 31 30
32 33 33 32 31 31 32 31 31 29 27 28 27 25 24 21 18 18 18 17 18 19 19 20 22 22 22 23 23 24 25 24 24 23 22 22 21 20 18 18 17 17 16 15 14 13 13 12 12 12 11 10 9 8 6 5 4 4 2 1 2 2 4 5 6 6 8 9 11 12 14 15 17 21 23 25 27 29 30 30 30 30 31 32 31
34 33 33 33 31 32 32 32 31 29 28 29 28 27 26 22 18 18 18 18 19 20 21 22 23 23 23 24 24 25 26 25 24 23 23 23 21 20 19 19 18 17 16 15 15 14 14 13 12 12 11 10 8 7 6 5 4 3 1 1 2 3 4 5 6 6 6 7 8 11 14 15 17 21 23 25 27 29 31 32 32 32 32 33 32
34 33 33 32 32 32 33 33 31 29 29 31 30 29 27 23 19 18 18 19 20 20 21 23 23 23 23 24 24 25 26 25 25 24 23 23 22 21 20 20 19 17 16 16 15 15 14 13 12 10 9 7 7 6 5 3 2 2 1 1 2 3 4 5 6 6 7 7 8 10 14 15 18 21 24 25 28 30 30 32 33 33 33 33 32
34 33 33 32 32 34 34 33 30 30 32 32 31 30 27 23 21 19 18 20 20 20 20 21 21 21 21 22 23 24 25 24 24 24 23 23 22 21 21 20 19 18 17 17 15 15 15 13 10 9 8 8 7 6 5 3 2 0 1 2 3 4 5 6 6 8 9 9 9 11 14 16 19 22 24 25 28 30 31 32 33 33 33 34 33
33 33 32 32 33 34 34 32 30 31 34 34 32 31 26 23 22 19 18 20 21 20 20 21 21 21 21 21 21 22 23 23 24 24 23 23 23 21 20 20 19 18 18 17 16 16 15 11 10 10 9 8 7 6 5 3 2 0 1 2 3 4 5 6 7 9 11 12 11 12 15 17 19 21 22 24 27 29 31 33 34 34 34 35 35
32 32 31 32 34 33 31 31 31 34 35 34 33 30 26 24 23 20 20 22 21 21 22 22 22 22 21 22 22 23 23 23 23 23 22 22 21 20 20 20 19 18 18 16 17 17 14 11 11 11 9 8 8 7 6 4 3 1 1 2 3 4 5 6 8 10 12 13 13 13 14 17 19 20 22 25 27 30 32 33 33 33 34 35 36
33 32 32 32 34 33 31 31 32 35 35 34 33 30 27 26 24 22 22 22 22 22 23 23 23 23 22 23 24 24 24 24 24 23 24 23 20 19 19 19 18 18 17 16 16 16 14 12 12 11 9 8 8 7 6 4 3 1 1 1 2 3 5 7 9 11 12 13 14 14 15 17 19 21 23 26 28 30 31 32 31 31 33 34 35
33 33 33 33 33 31 31 32 33 34 34 34 33 30 28 27 26 24 23 23 22 23 24 23 23 24 23 23 24 24 24 25 25 25 25 24 21 20 19 18 18 17 16 16 15 15 14 13 13 12 10 9 9 8 7 5 3 3 2 1 2 3 5 7 9 11 12 13 14 14 15 17 20 21 23 26 28 30 31 31 29 28 31 33 33
32 32 34 35 33 31 32 33 34 33 33 33 32 29 28 28 26 25 24 24 23 24 25 24 23 23 23 23 23 25 25 26 26 25 25 24 23 20 17 16 17 16 15 14 14 13 14 14 13 12 10 10 9 8 6 5 4 3 2 2 4 5 6 8 10 12 13 14 15 15 15 17 20 22 23 25 27 28 30 30 28 27 29 31 31
32 32 33 34 34 33 34 34 33 33 32 32 31 29 29 28 27 26 25 24 23 24 25 26 25 24 23 22 23 25 25 26 26 25 24 24 23 21 18 16 16 15 13 13 13 13 14 14 12 11 11 11 9 7 6 5 5 4 3 5 7 7 9 10 12 13 15 15 14 14 15 17 20 22 22 23 25 26 28 28 27 26 28 30 30
32 33 33 33 33 34 35 34 33 33 33 33 32 31 29 29 28 27 26 24 24 24 25 27 27 27 27 24 23 25 24 24 24 24 23 23 24 22 20 18 15 13 13 14 15 15 15 13 11 11 13 12 8 8 8 6 6 6 4 5 7 6 8 11 12 11 11 12 12 12 14 18 20 21 21 22 23 25 27 27 26 26 28 30 31
33 34 34 33 31 30 34 35 34 34 34 33 33 31 29 29 29 29 27 26 25 25 26 28 29 30 31 28 23 23 22 21 20 20 20 23 25 24 22 20 18 16 14 15 17 17 17 17 15 14 15 13 9 9 9 7 8 7 5 6 6 4 6 11 12 9 10 11 11 11 15 18 19 20 20 20 22 24 26 27 27 27 29 30 31
34 36 35 32 28 28 32 36 35 34 33 33 32 30 30 30 30 29 28 27 26 26 27 29 31 32 32 30 26 25 25 24 22 19 18 21 24 25 24 22 20 18 15 15 17 16 16 18 18 17 17 14 10 11 11 8 9 9 7 7 5 5 9 12 10 9 10 11 12 13 16 17 18 19 19 19 21 22 23 24 26 27 28 30 30
35 36 33 28 26 27 31 34 34 31 30 30 31 31 30 30 30 29 28 28 27 27 28 31 32 32 32 32 32 32 30 28 27 24 21 21 23 25 26 21 16 14 13 14 16 15 15 18 18 18 18 14 11 12 11 10 10 10 9 7 6 7 11 11 9 10 10 10 13 15 16 16 17 17 17 19 21 20 19 21 25 27 28 29 29
34 33 30 27 26 27 29 32 32 29 27 28 30 31 30 30 31 31 30 29 28 28 29 31 32 32 32 32 33 33 31 28 28 27 25 24 24 26 27 21 14 12 13 15 15 15 17 19 18 19 20 15 11 12 12 11 11 10 10 9 8 9 9 8 8 10 10 10 13 15 15 15 15 16 17 19 21 20 20 21 23 25 26 27 28
31 31 29 29 28 26 27 31 33 30 29 30 31 31 30 30 31 31 30 29 29 29 30 30 30 31 31 30 30 31 30 28 28 27 26 27 26 26 27 24 18 16 16 16 15 15 18 20 19 18 19 16 13 12 13 12 12 11 10 10 10 9 8 7 8 8 8 10 12 14 14 14 15 15 17 20 21 21 22 23 23 23 24 26 28
26 28 29 29 28 26 28 33 33 31 30 31 30 29 29 29 30 31 30 30 30 30 29 29 29 29 29 29 29 31 30 29 29 28 28 29 29 27 27 26 23 21 19 18 16 15 16 20 20 17 16 16 15 14 14 13 12 12 11 10 10 9 8 8 8 7 9 10 12 13 14 15 15 15 17 20 21 21 22 24 23 22 23 24 25
27 28 27 26 26 26 29 31 31 29 30 29 28 27 28 30 30 31 30 30 30 29 28 28 28 27 27 27 28 29 30 30 29 29 30 30 28 26 27 28 27 25 21 19 19 18 17 20 21 17 14 15 15 15 15 14 12 12 11 11 11 10 8 7 6 7 9 11 12 13 14 15 15 15 18 20 20 20 21 23 23 23 23 24 24
29 28 25 24 25 25 26 27 27 27 27 28 28 29 30 31 31 29 29 29 30 28 26 25 25 25 25 25 25 27 30 30 29 30 31 28 26 26 28 29 29 27 24 23 22 21 20 20 21 18 15 15 15 15 15 14 13 13 12 12 11 10 8 7 6 6 9 11 13 14 13 14 15 16 18 19 19 19 21 21 22 23 23 25 25
31 30 28 25 23 22 22 23 23 23 24 26 28 30 30 31 30 28 28 29 29 28 25 24 24 24 24 24 26 28 31 31 29 30 30 27 25 26 28 30 30 28 26 25 23 21 20 19 18 18 19 18 16 15 15 14 14 14 14 13 12 8 7 6 5 5 8 11 14 13 13 14 15 15 17 18 17 19 21 20 21 22 23 24 25
33 32 30 26 22 22 23 22 21 21 22 24 26 28 29 30 29 28 28 28 28 27 25 24 24 24 24 25 28 30 31 31 30 30 29 29 28 27 26 28 31 30 27 26 24 22 21 19 17 18 20 20 18 17 16 15 15 15 14 13 12 7 5 5 5 4 8 14 15 11 12 15 15 14 16 16 16 19 21 19 21 23 23 24 25
29 30 30 28 25 25 24 22 21 21 21 22 23 26 29 29 29 29 29 29 28 26 25 25 26 26 26 27 28 28 28 30 31 30 29 29 30 29 26 27 31 32 30 28 26 24 24 21 20 20 21 21 20 18 17 16 15 15 13 12 11 7 4 6 8 8 11 16 15 11 13 16 15 14 16 15 16 20 20 19 21 23 22 23 25
27 28 27 25 25 24 23 21 20 20 20 21 22 25 28 29 30 31 30 29 27 27 27 27 27 27 27 27 27 26 26 28 32 31 29 28 29 29 26 26 29 31 31 30 30 29 26 24 23 22 22 23 21 19 18 16 15 14 12 9 9 8 5 7 11 12 14 15 12 11 15 16 14 14 16 15 16 21 21 19 20 22 22 22 24
27 27 24 22 22 21 21 21 20 19 20 21 22 24 25 27 29 29 28 27 27 26 26 25 25 25 25 25 25 25 26 29 31 29 27 27 28 28 26 26 27 29 30 31 33 32 29 26 25 24 24 23 21 19 17 16 15 15 11 7 8 9 7 8 12 13 13 14 12 14 18 18 15 15 16 16 18 21 20 19 20 21 21 21 23
29 28 24 21 20 19 21 22 21 20 20 21 23 24 25 25 26 27 27 27 26 25 23 21 21 22 22 22 24 26 28 29 29 26 23 25 26 26 25 25 26 26 27 30 34 34 32 29 28 26 24 22 20 19 17 16 15 14 11 9 11 10 9 10 13 14 13 14 16 18 19 18 15 16 17 17 18 20 19 19 20 21 20 20 23
29 27 23 20 18 19 20 21 21 20 20 21 23 24 25 25 26 27 27 26 24 23 21 18 17 20 22 24 26 27 27 26 26 24 22 22 22 22 22 23 24 25 26 29 33 35 34 32 30 28 25 22 20 18 17 16 13 10 8 10 12 12 12 14 15 14 14 16 17 18 18 16 15 17 17 16 18 19 19 19 20 20 19 20 23
24 22 20 19 18 18 18 19 19 19 21 23 25 25 24 25 27 28 27 25 23 21 19 17 18 22 25 26 26 26 24 24 24 23 20 18 18 18 19 21 23 24 26 28 30 33 34 33 31 28 25 21 19 18 16 15 12 9 9 12 14 14 16 17 15 14 15 17 18 18 17 16 15 16 15 14 17 19 18 19 19 18 18 19 22
19 19 18 17 17 17 16 17 19 20 22 24 24 24 23 23 26 29 29 26 22 20 18 18 21 24 25 25 24 23 22 21 21 20 18 17 17 17 17 19 21 23 25 27 29 31 31 31 30 27 24 21 20 18 15 12 10 10 12 16 17 17 17 15 14 14 15 17 19 19 17 15 15 14 13 15 18 19 18 18 19 17 17 19 21
15 15 14 15 16 17 16 16 18 20 23 24 23 22 21 21 22 26 28 28 25 22 20 21 23 25 26 25 24 22 20 19 19 19 18 18 17 17 18 19 21 23 24 26 27 28 28 29 29 28 26 23 21 18 14 11 10 11 14 18 19 18 16 14 13 14 16 17 17 17 16 16 15 14 16 18 19 18 18 18 17 15 17 20 22
12 11 11 12 13 14 15 16 17 19 21 22 21 20 20 19 18 20 23 25 25 24 22 22 24 24 24 24 24 23 20 19 19 19 19 19 18 18 18 20 22 24 24 24 24 26 27 28 28 28 26 24 21 18 15 13 13 14 16 18 19 18 16 15 15 16 17 17 17 16 16 16 16 18 19 19 18 18 18 17 16 16 19 21 22
12 13 13 12 12 13 14 16 16 17 18 20 20 19 18 18 18 19 21 21 22 23 23 24 24 23 21 21 23 23 21 19 19 19 19 19 18 18 20 22 23 24 24 24 24 25 26 27 26 25 24 23 21 19 18 17 17 18 19 19 18 18 17 16 16 16 16 16 17 17 17 17 20 21 19 16 17 19 18 17 17 18 19 21 22
15 14 13 13 12 12 12 12 12 12 13 15 16 17 16 16 18 20 20 19 20 21 23 25 25 24 21 21 22 23 22 20 19 19 19 19 18 18 19 21 22 23 23 24 24 25 25 25 25 24 23 22 21 21 20 19 19 19 18 16 16 16 17 18 19 19 19 19 20 21 21 22 22 20 17 16 17 18 17 17 18 17 18 21 23
15 13 12 13 13 13 13 12 11 10 10 10 12 14 16 16 17 18 19 19 20 22 22 23 24 23 22 22 23 24 24 23 22 22 22 21 21 20 20 20 21 22 23 23 24 24 24 24 23 23 22 21 21 21 20 19 19 18 15 14 15 17 19 20 21 21 21 22 22 22 20 18 15 13 14 16 17 17 16 17 17 17 20 22 21
12 11 9 10 12 14 14 13 12 12 12 12 13 14 15 15 16 17 18 19 21 21 21 21 22 21 21 21 22 23 25 27 27 26 26 25 25 24 23 23 24 23 23 23 23 23 23 22 22 21 21 20 20 19 17 16 14 13 13 15 17 19 21 22 22 22 21 21 21 20 19 16 14 14 16 17 16 15 16 17 18 19 21 20 18
13 12 11 9 9 11 13 13 13 14 14 14 15 16 16 16 16 17 17 17 19 19 19 20 21 21 20 20 20 22 24 27 29 29 28 28 27 27 27 27 27 26 26 25 25 24 24 22 21 20 19 18 16 14 12 11 10 12 14 17 18 20 22 22 22 21 22 21 21 20 20 19 18 19 19 17 16 17 18 19 19 19 18 18 19
12 13 14 14 11 11 13 15 15 15 15 15 15 16 17 18 18 18 17 17 18 18 18 19 20 20 19 19 18 17 19 22 26 29 29 29 29 30 31 31 31 29 28 27 26 26 25 22 20 18 17 14 12 11 11 12 13 15 17 18 19 20 21 21 21 22 22 22 21 21 21 21 21 20 20 20 18 18 18 19 19 19 18 20 22
9 9 12 13 13 13 15 16 16 16 16 15 15 16 17 16 16 16 16 17 17 18 19 20 19 18 18 18 17 15 15 17 20 24 28 29 29 29 31 33 33 33 31 30 28 26 25 23 21 19 18 15 14 14 16 17 18 18 19 19 20 21 21 22 22 23 23 24 23 23 24 24 22 19 18 18 18 18 18 19 20 20 20 22 24
7 7 9 9 10 12 14 15 15 16 16 16 15 15 14 14 13 13 14 15 15 15 17 17 15 14 16 18 18 17 15 14 16 19 24 26 27 27 27 28 31 33 33 32 29 27 26 25 23 21 19 18 17 17 19 21 22 22 22 21 21 21 22 23 24 24 25 25 25 25 25 24 22 19 18 18 18 19 20 20 21 22 22 23 25
8 9 10 8 9 11 13 13 14 14 15 15 14 13 12 12 12 10 10 12 12 13 14 15 13 14 17 19 19 18 15 15 15 17 19 22 25 25 23 23 25 28 30 31 30 28 27 26 25 23 21 20 21 21 21 24 26 26 24 22 21 22 23 25 27 27 27 26 25 25 24 23 23 21 20 20 20 20 20 21 23 24 25 27 29
9 10 10 8 9 11 13 13 13 14 15 16 15 15 15 15 13 11 11 11 11 13 15 15 16 17 18 18 18 18 17 17 16 17 18 20 22 24 23 21 20 21 24 27 28 28 26 25 26 25 23 22 23 23 24 26 27 26 25 23 22 22 23 25 26 26 25 25 25 24 23 22 21 20 20 20 20 21 22 23 25 27 28 30 31
10 10 9 9 10 12 13 13 13 14 15 16 16 15 15 15 15 15 14 12 11 13 14 15 15 17 17 18 18 18 18 18 17 17 18 20 21 22 22 20 18 18 20 23 25 25 25 24 24 24 24 23 24 24 26 27 27 25 23 22 22 23 24 24 24 24 24 24 23 22 20 19 19 19 20 20 21 22 24 26 27 29 30 30 30
10 9 6 6 7 9 11 12 13 14 15 14 14 14 14 12 12 12 12 11 13 15 15 14 14 14 16 17 18 18 18 19 19 17 17 19 21 22 21 20 19 18 19 21 22 23 23 22 22 21 22 23 23 25 26 27 26 24 23 23 23 24 24 24 24 24 24 22 21 19 19 19 19 19 20 22 24 25 27 29 30 31 31 30 29
11 11 7 4 4 6 8 9 11 12 12 11 11 12 11 8 7 8 9 10 11 12 12 12 10 9 11 14 16 16 16 18 18 18 18 19 21 22 22 21 20 18 18 19 21 21 21 20 20 20 21 22 23 25 26 26 24 24 24 25 25 24 23 23 23 23 21 20 19 20 21 22 21 21 22 25 28 30 31 31 32 32 31 29 26
9 11 8 6 7 8 8 9 11 12 12 11 11 11 11 10 9 10 10 10 9 9 9 10 10 11 13 14 13 12 12 13 14 15 18 19 20 21 21 20 19 17 18 20 21 22 21 20 20 20 20 21 22 23 23 23 23 23 23 23 22 22 23 23 24 22 20 20 21 24 25 26 26 27 28 30 32 33 33 33 33 32 30 27 26
6 8 8 7 8 9 9 10 11 11 11 12 12 12 11 13 14 13 10 10 10 10 10 12 15 19 19 17 12 9 10 12 13 15 16 17 18 18 18 18 17 17 19 21 22 22 22 22 21 21 21 21 22 22 21 21 22 22 21 21 21 22 22 22 22 21 21 23 25 26 27 28 29 30 31 32 33 33 33 33 33 31 28 26 27
6 7 8 7 8 8 9 10 10 9 8 11 12 11 10 12 15 16 13 10 11 11 11 11 13 15 15 12 11 12 13 14 15 17 17 17 16 16 17 18 18 19 19 19 18 19 20 21 21 21 21 22 23 22 21 21 21 21 21 21 21 21 21 21 21 22 24 25 26 26 27 28 29 30 30 31 32 32 32 32 30 28 27 27 27
Wind_Direction
191 191 192 194 196 198 202 197 188 186 190 193 193 189 193 198 195 202 216 215 203 197 201 208 210 211 212 210 208 205 203 200 198 196 192 189 188 188 190 188 185 186 185 183 180 177 177 176 175 173 164 156 152 148 137 114 94 102 105 92 71 55 56 59 39 24 25 13 6 9 359 351 357 360 357 357 3 8 9 5 2 1 359 358 360
191 192 194 195 198 202 200 190 185 189 192 192 191 189 193 198 199 209 220 216 205 203 207 209 210 212 212 210 208 205 202 201 199 195 192 191 190 189 190 189 187 189 188 185 184 181 179 178 176 173 171 167 160 156 146 131 137 162 117 89 65 50 39 41 32 14 11 13 9 4 355 351 355 356 352 353 359 6 9 5 2 4 5 2 359
191 191 193 194 197 199 191 185 188 195 194 189 188 192 197 199 202 212 217 212 205 205 209 210 210 211 211 209 208 205 203 202 200 196 194 194 192 191 191 191 190 190 190 189 188 185 182 179 176 172 171 169 161 161 158 145 152 164 127 86 41 30 28 36 29 5 358 5 7 360 352 350 352 352 350 352 358 4 7 6 4 6 9 5 358
190 190 192 193 194 194 188 187 192 196 192 187 187 194 198 199 205 214 214 209 205 206 209 210 210 211 210 209 207 205 203 202 199 198 197 195 194 194 194 192 190 191 193 191 188 188 184 178 177 178 177 174 166 166 168 157 151 152 135 108 53 20 27 38 29 7 357 358 3 358 346 343 347 349 348 350 357 2 4 7 7 7 10 8 0
189 190 192 193 193 193 191 191 194 194 191 189 191 196 198 198 208 215 211 206 204 206 209 209 210 210 210 209 207 205 204 203 201 200 198 195 196 198 196 192 190 192 193 191 191 191 187 182 183 184 186 185 177 172 175 173 160 148 138 105 72 26 21 32 27 13 359 350 352 352 342 338 342 346 348 351 355 358 2 8 9 8 9 9 5
190 192 195 195 195 194 192 194 195 191 190 191 193 199 199 199 210 215 209 204 203 207 210 210 209 208 208 208 207 206 205 204 203 202 198 196 197 198 195 190 192 195 194 194 196 194 191 190 191 191 193 192 184 177 176 179 167 145 131 59 47 21 15 31 28 11 354 344 343 341 340 340 338 343 351 354 354 354 357 4 11 12 8 4 4
191 193 194 194 193 191 191 194 195 191 192 193 194 200 201 200 210 215 208 203 206 211 212 210 209 207 207 208 207 207 206 204 204 203 199 197 197 196 193 192 195 198 197 198 199 198 199 199 197 198 200 196 190 185 182 183 179 160 144 11 12 11 17 33 31 13 356 352 347 337 341 346 339 341 352 357 356 358 358 359 3 8 7 3 2
191 193 193 193 192 190 190 192 194 193 193 193 196 201 201 201 211 217 210 206 210 214 212 208 206 204 204 205 206 207 206 203 203 202 199 197 197 197 196 196 199 199 197 201 202 203 206 207 204 202 201 199 194 189 189 194 194 177 132 359 356 9 22 30 32 25 15 10 357 342 346 351 344 346 355 357 356 1 3 358 355 357 359 1 2
192 193 194 194 193 192 190 190 193 195 194 195 198 201 200 204 214 219 212 208 209 209 204 201 199 196 196 199 203 206 205 202 202 201 199 198 199 199 199 199 201 199 200 204 205 208 214 211 205 201 199 201 200 193 192 191 195 234 7 357 352 7 20 26 30 27 21 18 6 354 356 357 352 352 357 356 355 359 3 359 355 353 351 353 358
191 194 196 196 194 193 193 192 193 195 195 197 199 199 200 206 213 218 212 207 207 202 196 197 196 192 192 196 201 205 202 200 202 201 199 200 201 201 199 199 201 202 205 207 205 211 216 208 202 204 203 204 206 200 194 188 187 249 359 356 352 6 17 22 26 23 19 18 13 6 2 359 359 358 356 356 358 1 2 358 354 352 350 347 350
189 193 196 196 192 191 193 192 192 195 197 198 197 197 202 206 209 216 214 208 207 201 194 196 196 193 194 196 201 205 202 198 202 201 198 201 203 200 198 201 203 205 208 208 208 214 215 203 204 210 208 211 214 205 197 192 189 211 350 351 353 6 13 17 20 18 16 15 14 13 6 0 3 4 360 360 2 2 1 358 353 351 349 344 343
188 190 192 192 188 188 189 188 191 197 199 197 195 198 204 205 206 214 213 207 204 198 194 197 196 192 195 199 203 207 203 200 203 203 200 201 201 199 199 202 203 205 208 206 209 218 216 206 209 214 210 216 222 214 207 200 194 213 243 323 352 5 13 17 15 11 9 10 11 14 8 2 5 7 5 3 1 360 359 356 354 351 347 343 341
187 189 191 192 188 187 189 188 192 199 198 194 196 201 204 205 208 213 211 206 203 197 194 197 196 193 196 200 204 208 206 203 206 208 206 202 199 197 199 201 200 203 207 207 210 221 221 215 216 218 216 220 224 220 213 205 209 226 226 242 350 3 10 12 9 4 2 4 7 10 7 3 5 7 7 3 358 356 354 351 352 351 347 344 343
187 188 190 192 190 188 189 191 195 197 194 194 198 202 204 205 209 211 208 205 204 199 196 196 195 194 196 199 205 210 211 209 209 212 211 206 200 195 192 197 199 200 206 208 209 220 228 227 225 223 223 227 231 231 224 219 230 245 274 325 339 351 357 359 358 355 356 359 359 359 2 3 2 2 2 360 356 353 350 347 349 349 346 345 346
187 188 188 191 193 193 193 196 198 195 193 196 201 203 204 205 208 209 208 208 207 203 199 196 194 195 195 199 208 214 215 213 213 214 214 210 204 192 184 193 200 199 203 205 204 216 230 234 235 237 234 232 235 243 246 255 267 269 295 321 325 332 339 345 349 347 347 348 345 345 356 2 360 356 353 352 353 351 347 346 348 348 345 345 346
188 190 188 188 193 197 198 199 199 195 195 199 202 204 206 208 210 211 209 209 209 206 202 198 196 197 195 197 210 218 217 215 217 217 216 213 206 194 187 190 191 194 204 207 205 212 220 221 224 239 243 236 233 242 243 248 259 260 271 292 299 318 324 323 332 336 331 329 327 338 359 3 356 351 348 348 349 348 345 347 352 351 346 345 345
189 191 189 188 192 199 202 201 199 197 198 201 204 206 209 211 212 212 211 211 210 207 204 200 199 201 199 197 206 216 215 214 219 222 220 215 207 198 195 194 190 192 207 217 216 216 221 219 212 224 241 240 234 243 245 241 244 248 250 263 279 309 299 293 307 323 320 322 331 353 8 2 350 347 348 346 346 344 343 348 354 353 348 345 343
187 189 188 188 190 195 200 202 201 199 201 205 207 209 212 214 215 214 214 214 211 209 207 203 204 207 205 200 204 214 216 215 218 220 219 214 208 202 203 205 201 197 205 223 226 222 228 230 219 220 238 242 232 237 244 241 241 244 245 250 268 292 279 280 302 321 322 332 350 7 11 359 346 345 346 343 342 341 343 351 356 353 349 346 343
187 186 186 186 187 192 199 202 201 203 207 211 212 212 214 215 214 213 213 213 212 214 213 211 210 211 210 208 211 218 221 218 217 217 211 209 210 210 209 207 204 201 208 226 231 223 228 237 229 225 238 246 239 236 239 239 241 250 256 249 245 264 273 284 310 319 323 344 0 8 7 354 341 340 339 335 336 340 350 359 357 351 348 346 346
190 189 187 188 192 197 199 198 198 203 208 209 211 214 215 214 212 212 212 213 216 218 217 216 216 216 217 218 219 222 224 220 219 219 212 209 212 215 211 202 193 202 215 227 233 226 227 236 235 232 239 247 246 242 241 240 241 248 257 256 258 268 278 294 314 317 326 352 2 1 355 342 335 335 333 331 336 346 357 360 353 348 347 347 348
192 194 192 192 197 201 198 194 197 203 205 205 209 213 214 215 215 216 216 216 219 220 218 219 222 222 222 223 222 223 226 223 220 219 214 213 214 214 211 203 191 195 209 220 231 232 231 238 241 237 239 244 246 245 245 243 243 246 252 261 272 280 286 299 314 323 336 355 2 353 339 331 332 335 331 331 338 348 354 351 348 349 351 349 347
188 189 188 188 196 203 200 197 200 204 206 208 212 214 215 217 219 219 217 218 220 220 219 222 224 223 223 223 222 223 225 224 222 219 216 218 220 216 211 205 198 199 204 211 223 230 234 244 250 244 239 241 243 244 245 244 244 249 253 262 271 275 285 301 318 336 349 360 359 341 327 328 333 333 329 331 341 351 350 346 348 352 353 351 349
182 183 185 188 197 204 202 200 203 207 210 212 215 217 218 218 218 218 218 221 224 224 224 226 226 225 224 222 221 224 225 225 224 220 218 221 223 218 210 204 204 209 206 201 209 215 221 239 252 252 241 239 240 243 244 244 245 250 254 260 266 271 285 301 315 334 348 355 347 330 322 327 331 330 328 332 345 351 344 342 350 355 354 353 352
184 186 188 190 195 200 201 202 207 213 215 216 217 219 219 217 217 219 223 227 230 228 227 226 224 222 222 221 219 221 225 228 226 222 221 223 223 218 210 204 207 212 206 198 205 211 211 224 243 251 249 245 243 243 245 246 247 250 253 259 264 272 287 296 307 336 348 343 330 320 319 325 328 327 327 334 345 345 337 338 349 354 354 354 354
186 187 188 192 195 198 201 206 212 216 218 220 221 221 221 220 219 222 228 230 230 229 228 227 224 221 220 219 218 221 227 230 228 223 223 225 223 218 210 206 209 211 205 201 205 210 212 220 233 244 250 252 250 248 248 248 248 249 253 259 263 272 294 295 298 333 335 321 316 314 315 322 324 323 328 335 340 337 333 339 347 350 353 355 355
189 191 198 205 206 204 206 210 216 220 222 224 224 224 225 224 224 227 230 230 230 230 230 228 224 222 220 221 224 228 230 232 230 226 224 224 222 218 213 210 211 211 207 204 206 209 215 221 225 232 241 248 252 253 251 249 250 254 259 264 265 276 313 311 308 327 310 308 318 318 308 317 325 324 328 334 332 330 334 341 345 347 350 352 351
195 199 207 213 212 211 214 217 219 221 222 224 223 223 224 226 227 230 231 230 228 228 228 226 224 223 223 223 228 232 232 231 231 230 228 226 222 219 217 214 212 212 210 209 210 213 217 221 225 230 237 245 251 254 252 250 252 255 262 269 270 275 299 303 310 318 300 302 315 312 304 319 328 323 325 330 325 327 335 343 343 344 348 349 348
197 199 203 207 211 214 217 216 216 218 218 219 220 221 223 224 226 230 232 231 229 229 229 229 229 230 228 225 226 230 228 228 233 234 232 230 227 222 220 219 218 218 218 217 218 218 220 224 228 232 238 245 250 251 250 250 253 255 262 275 279 281 293 301 309 314 307 308 314 301 301 317 322 316 322 325 318 324 336 344 342 341 345 347 345
197 196 198 204 210 214 213 210 211 213 214 216 218 221 225 227 228 230 232 232 235 238 238 238 239 237 232 226 226 225 218 223 235 242 239 235 233 229 228 229 228 228 227 224 221 220 222 226 229 234 240 247 250 251 249 252 256 257 260 280 295 292 289 294 300 302 300 303 301 290 297 310 313 311 317 317 315 324 336 340 337 338 343 343 342
198 199 202 208 214 214 209 205 208 211 212 213 215 219 224 226 225 228 231 234 239 243 245 247 248 242 231 223 223 222 220 227 243 252 249 242 239 237 235 234 233 232 229 225 221 221 223 227 232 237 243 246 249 250 250 254 260 260 262 285 300 292 274 278 294 296 289 287 287 288 299 310 310 306 308 310 316 325 333 334 333 337 341 339 338
201 203 207 214 215 210 206 205 209 211 210 211 214 218 221 219 218 223 230 236 241 244 245 243 238 232 227 222 222 225 228 236 248 256 256 249 243 239 236 233 230 228 226 225 223 222 223 227 232 238 243 245 248 249 249 252 257 261 271 284 286 275 260 267 283 288 283 282 285 291 301 305 301 297 301 309 317 323 328 330 331 334 338 335 335
204 206 210 211 208 205 205 206 211 214 212 212 215 218 219 217 217 220 226 231 237 241 241 233 222 220 223 227 229 233 236 240 247 255 257 252 244 238 233 229 226 225 224 225 224 224 225 227 230 236 240 241 242 245 249 252 253 257 271 274 269 264 263 270 280 282 278 279 284 291 297 299 297 298 300 306 313 318 322 325 327 334 336 332 333
208 209 208 204 203 204 204 205 212 217 216 212 210 210 215 219 220 219 219 223 227 230 230 226 222 222 226 232 237 240 240 242 248 253 254 250 246 241 233 227 224 224 225 226 225 225 226 227 229 233 235 235 235 240 247 253 253 255 262 263 264 267 273 281 290 289 283 285 291 297 300 303 306 304 297 298 307 312 313 317 326 335 334 328 334
207 210 209 204 205 208 207 208 213 217 216 213 208 207 214 222 221 217 215 218 222 225 224 223 223 225 229 236 242 244 243 243 244 247 248 246 243 238 232 226 223 224 226 228 228 227 226 226 227 230 232 234 235 237 239 242 247 256 261 264 268 274 276 278 280 280 281 287 293 295 298 303 303 295 287 293 303 305 306 314 326 332 327 327 334
201 203 202 202 207 215 218 218 216 214 216 218 216 217 221 224 223 222 223 225 230 234 235 233 230 230 234 238 241 243 243 242 241 240 239 237 234 231 226 223 222 223 224 226 227 227 227 227 228 230 234 237 236 233 230 233 239 248 257 263 269 275 277 275 273 273 276 280 282 283 286 289 284 281 285 293 298 297 302 315 324 321 319 324 330
205 200 198 204 214 224 227 223 217 216 220 222 223 225 226 223 222 227 230 232 236 240 242 240 236 236 238 238 237 238 239 241 241 240 236 232 230 228 226 224 224 224 224 225 226 226 227 229 231 233 235 238 239 237 235 236 239 243 251 259 266 273 276 274 271 270 273 274 274 274 274 274 275 279 287 293 291 291 299 311 314 311 313 320 325
219 208 204 212 216 214 215 216 215 222 227 225 222 222 221 219 223 229 234 236 236 239 241 239 237 236 237 237 234 233 236 239 240 239 236 232 230 230 229 229 227 226 226 227 228 228 229 231 232 235 237 239 242 242 242 243 244 247 253 262 270 272 270 266 264 267 270 272 273 274 276 277 277 278 283 290 293 294 299 305 307 310 314 317 319
223 215 213 221 221 213 209 209 213 225 236 232 224 222 223 224 225 230 237 240 240 241 241 240 240 241 243 243 239 234 233 235 237 236 234 231 229 228 228 228 228 227 229 230 231 232 233 234 234 236 238 239 242 247 251 254 252 248 249 259 268 267 265 266 269 272 276 279 281 286 290 287 281 279 286 293 297 299 301 302 306 311 314 315 315
209 212 215 223 222 217 214 215 217 224 233 235 231 230 233 234 232 232 236 239 241 241 240 240 244 248 247 245 242 238 235 235 236 238 238 236 233 229 225 224 225 225 227 231 233 233 234 235 236 237 238 241 246 252 256 255 250 243 244 253 259 261 263 267 272 275 278 283 287 292 295 292 287 291 295 293 290 294 298 299 302 308 313 315 317
203 210 213 215 211 209 214 219 221 222 226 230 233 236 239 239 238 238 237 236 238 241 238 237 243 249 249 248 248 247 245 242 241 241 243 242 238 233 228 227 227 226 226 229 233 235 237 238 239 242 244 247 249 250 248 247 245 244 248 253 257 261 265 268 271 273 276 281 285 290 293 291 286 283 282 279 280 287 291 294 300 307 311 312 313
210 213 217 221 223 221 221 221 218 219 222 225 230 235 239 240 240 240 237 235 237 240 238 235 237 244 252 258 258 256 254 250 246 245 247 248 247 242 237 233 231 230 230 231 232 236 240 242 242 243 244 244 247 250 249 247 246 246 248 253 260 265 267 267 268 271 274 277 281 287 293 297 293 281 272 271 277 285 289 294 300 305 305 305 309
215 214 217 224 231 234 232 225 219 219 222 223 227 232 237 241 241 237 234 234 234 235 237 238 237 241 249 257 260 259 258 254 249 246 248 252 254 251 247 243 239 237 238 238 236 236 240 243 244 244 240 237 246 254 250 243 242 246 252 258 264 266 266 265 266 268 269 274 280 286 290 295 296 289 277 275 281 288 292 295 298 299 301 306 311
221 222 222 230 237 239 238 233 227 225 227 231 235 237 239 245 248 241 235 236 234 233 239 244 241 231 231 240 249 256 256 251 246 245 247 251 254 255 253 251 249 248 247 245 241 239 241 242 245 246 242 238 243 251 249 245 246 251 257 262 265 266 265 263 262 263 267 274 284 291 292 291 291 288 282 280 284 288 290 291 294 296 298 302 307
219 226 225 231 237 236 236 236 232 227 227 233 236 230 227 237 251 253 247 244 241 240 243 244 234 218 218 229 242 248 247 244 243 246 249 250 253 257 259 258 256 254 252 248 244 243 243 244 246 248 245 241 241 245 248 250 253 257 262 265 265 264 262 260 260 263 270 278 287 293 294 291 287 283 280 278 281 285 287 290 292 294 295 298 303
211 223 219 216 221 224 228 232 231 225 222 226 228 223 217 221 231 241 248 252 253 253 251 246 235 226 226 234 243 245 245 245 247 251 254 252 252 256 260 262 261 257 252 248 245 243 244 246 249 249 246 244 244 245 247 251 256 261 266 268 268 268 266 265 265 269 276 284 291 294 294 291 287 284 281 279 280 283 285 288 292 295 296 300 304
214 224 223 219 220 222 225 228 227 226 225 226 228 228 227 225 226 236 247 250 245 247 251 246 237 232 233 238 242 245 247 249 251 253 254 250 248 251 256 260 259 254 248 244 243 242 244 248 249 247 245 246 248 249 250 253 258 264 269 271 271 270 267 266 270 276 282 287 291 293 292 290 287 286 286 285 285 285 287 290 294 298 300 302 304
212 217 229 236 224 219 224 225 224 226 231 231 227 230 236 238 236 242 254 253 239 236 243 246 240 236 236 238 242 248 251 251 252 253 252 248 245 246 251 257 260 257 249 244 242 243 245 246 245 244 244 248 251 253 254 256 260 265 270 270 268 265 265 267 274 281 285 288 290 290 290 289 288 287 287 288 289 291 293 295 298 300 301 302 301
199 196 198 207 197 197 210 217 218 221 226 226 224 224 228 239 246 240 242 246 241 235 236 242 244 242 238 240 247 254 254 252 253 254 254 251 246 241 244 253 262 262 256 250 246 245 243 240 239 241 246 250 253 256 258 259 262 265 267 266 263 263 268 274 278 279 279 280 282 283 284 285 285 283 282 285 289 293 296 298 298 300 300 299 295
198 198 196 200 201 202 207 214 219 220 213 211 220 220 208 211 230 231 220 224 233 227 220 227 231 227 227 237 251 258 256 255 257 253 248 248 247 244 245 252 259 260 258 256 254 251 246 242 240 243 247 251 254 256 258 259 261 262 264 263 262 264 269 273 276 276 275 274 276 277 278 279 280 279 279 283 288 292 294 295 296 298 298 294 290
203 206 205 206 206 208 209 212 222 226 211 203 219 227 209 205 223 232 220 214 222 221 215 220 223 223 227 237 247 246 243 250 259 255 248 247 250 250 248 249 254 258 261 260 258 254 248 242 240 243 249 254 258 260 259 258 257 257 259 260 261 263 267 271 274 276 276 276 277 279 280 281 281 281 282 285 287 290 292 293 294 295 294 290 289
205 208 209 206 201 206 214 215 219 227 213 203 216 228 215 208 224 235 230 218 216 218 221 225 226 226 231 239 238 230 228 235 243 249 252 254 255 253 250 252 258 265 267 264 257 248 240 236 238 244 252 258 260 259 256 253 253 254 256 259 262 265 268 271 273 275 276 277 279 280 282 283 283 283 284 286 287 289 290 290 290 290 289 289 290
Height
1485 1487 1490 1492 1494 1496 1499 1501 1504 1506 1508 1510 1512 1514 1515 1517 1518 1520 1521 1522 1523 1524 1525 1526 1528 1530 1531 1533 1534 1535 1536 1537 1538 1539 1541 1542 1543 1544 1545 1545 1546 1546 1547 1548 1549 1549 1550 1550 1551 1551 1551 1551 1551 1551 1551 1551 1551 1550 1550 1549 1549 1548 1548 1547 1546 1545 1544 1543 1541 1540 1539 1537 1535 1533 1531 1529 1526 1524 1521 1518 1515 1512 1509 1506 1503
1483 1486 1488 1490 1493 1495 1498 1500 1502 1505 1506 1509 1511 1513 1514 1515 1517 1518 1519 1521 1522 1523 1524 1526 1527 1529 1531 1532 1533 1534 1535 1536 1538 1539 1540 1541 1542 1543 1544 1545 1545 1546 1546 1547 1548 1549 1549 1550 1550 1550 1551 1550 1550 1550 1550 1550 1550 1550 1550 1549 1548 1548 1547 1546 1545 1544 1543 1542 1540 1539 1538 1537 1534 1532 1531 1528 1526 1523 1520 1517 1514 1511 1508 1505 1502
1481 1484 1486 1489 1491 1494 1496 1499 1501 1503 1505 1507 1509 1511 1512 1514 1516 1518 1519 1520 1521 1522 1524 1525 1527 1528 1530 1531 1532 1533 1535 1536 1538 1539 1540 1541 1542 1543 1543 1544 1544 1545 1546 1547 1548 1548 1549 1549 1550 1550 1550 1550 1550 1550 1550 1550 1550 1549 1549 1549 1548 1547 1546 1545 1544 1543 1542 1541 1539 1538 1537 1536 1534 1532 1531 1528 1526 1522 1519 1517 1514 1511 1507 1504 1502
1480 1482 1485 1487 1489 1492 1495 1497 1499 1501 1503 1506 1508 1510 1511 1513 1516 1517 1518 1519 1521 1522 1523 1525 1526 1528 1529 1530 1531 1532 1534 1535 1537 1538 1539 1540 1541 1542 1543 1543 1544 1545 1545 1546 1547 1548 1549 1549 1549 1550 1550 1550 1549 1549 1549 1549 1549 1549 1548 1548 1547 1546 1546 1544 1543 1543 1541 1540 1539 1538 1537 1535 1534 1532 1530 1528 1525 1522 1519 1516 1513 1510 1507 1504 1501
1478 1481 1483 1485 1488 1490 1493 1496 1498 1500 1502 1504 1506 1509 1511 1513 1515 1516 1517 1519 1520 1521 1523 1524 1525 1527 1528 1529 1530 1531 1533 1535 1536 1537 1538 1540 1540 1541 1542 1542 1543 1544 1545 1546 1546 1547 1548 1548 1549 1549 1549 1549 1549 1549 1549 1549 1548 1548 1548 1547 1547 1546 1545 1544 1543 1542 1541 1540 1538 1537 1536 1535 1533 1532 1529 1526 1523 1521 1518 1516 1512 1509 1506 1503 1501
1476 1479 1481 1483 1486 1488 1491 1494 1496 1499 1501 1503 1505 1508 1510 1512 1514 1515 1516 1518 1519 1520 1522 1523 1524 1525 1526 1527 1529 1530 1532 1533 1535 1536 1537 1538 1539 1540 1541 1542 1542 1543 1544 1545 1546 1547 1547 1548 1548 1548 1549 1549 1548 1548 1548 1548 1548 1547 1547 1547 1546 1545 1544 1543 1542 1541 1541 1540 1538 1537 1536 1534 1533 1531 1528 1525 1522 1519 1516 1514 1511 1508 1505 1502 1499
1474 1476 1479 1481 1484 1487 1490 1492 1495 1497 1499 1501 1504 1507 1509 1511 1512 1514 1515 1517 1518 1519 1520 1521 1522 1523 1524 1525 1527 1528 1530 1532 1533 1534 1536 1537 1538 1539 1540 1541 1541 1542 1543 1544 1545 1546 1546 1547 1547 1548 1548 1548 1548 1548 1548 1548 1547 1547 1547 1546 1546 1545 1544 1543 1542 1541 1540 1539 1538 1537 1535 1533 1532 1530 1527 1524 1522 1519 1515 1511 1509 1506 1503 1501 1498
1472 1475 1477 1480 1483 1485 1488 1491 1493 1495 1498 1500 1503 1505 1507 1510 1511 1512 1514 1515 1515 1517 1518 1519 1520 1522 1523 1524 1525 1527 1528 1530 1531 1533 1534 1536 1537 1538 1539 1540 1540 1541 1543 1543 1544 1545 1546 1546 1547 1547 1548 1548 1548 1548 1547 1547 1547 1546 1546 1545 1545 1544 1543 1542 1541 1540 1539 1538 1537 1536 1534 1532 1530 1528 1526 1523 1520 1518 1515 1511 1508 1505 1503 1500 1497
1470 1473 1476 1478 1481 1484 1487 1489 1491 1494 1496 1499 1501 1503 1506 1508 1510 1511 1512 1513 1514 1516 1518 1519 1520 1522 1523 1524 1525 1526 1527 1529 1530 1531 1533 1534 1535 1536 1538 1539 1540 1541 1542 1542 1544 1545 1545 1545 1546 1547 1548 1548 1548 1548 1547 1547 1546 1546 1545 1545 1544 1543 1542 1541 1540 1539 1538 1537 1535 1534 1533 1531 1529 1527 1524 1522 1519 1517 1514 1511 1508 1505 1503 1500 1497
1468 1471 1474 1477 1480 1483 1485 1488 1490 1492 1494 1497 1500 1502 1505 1507 1508 1510 1511 1512 1514 1515 1517 1519 1520 1522 1523 1524 1525 1526 1527 1528 1529 1531 1532 1533 1534 1535 1537 1538 1539 1540 1541 1542 1543 1544 1544 1545 1546 1546 1547 1547 1547 1547 1546 1546 1546 1545 1545 1544 1544 1543 1542 1541 1540 1538 1537 1536 1534 1533 1531 1530 1528 1526 1524 1522 1520 1517 1513 1510 1507 1505 1502 1498 1495
1466 1470 1473 1476 1479 1481 1484 1486 1488 1490 1492 1495 1498 1501 1503 1505 1507 1508 1510 1511 1512 1514 1515 1517 1518 1521 1522 1523 1524 1525 1527 1528 1529 1530 1532 1532 1533 1535 1536 1537 1538 1539 1540 1541 1542 1543 1544 1545 1546 1546 1546 1547 1547 1547 1546 1546 1545 1545 1544 1544 1543 1543 1541 1540 1539 1538 1537 1535 1534 1532 1531 1529 1528 1526 1523 1521 1519 1516 1513 1511 1508 1504 1501 1497 1494
1465 1468 1471 1474 1477 1479 1482 1484 1486 1488 1490 1494 1497 1499 1501 1503 1505 1506 1508 1509 1511 1513 1514 1515 1517 1519 1520 1521 1522 1524 1525 1527 1528 1530 1531 1531 1533 1534 1535 1536 1538 1539 1540 1541 1542 1542 1543 1544 1545 1545 1546 1546 1546 1546 1546 1545 1545 1544 1544 1543 1543 1542 1541 1540 1538 1537 1536 1535 1533 1532 1530 1529 1527 1525 1523 1521 1518 1516 1514 1512 1509 1506 1502 1499 1496
1463 1466 1470 1473 1475 1477 1480 1482 1484 1485 1488 1492 1495 1497 1499 1501 1503 1504 1506 1507 1509 1511 1513 1514 1516 1517 1519 1520 1521 1522 1524 1525 1527 1528 1529 1530 1532 1533 1534 1535 1537 1538 1539 1540 1541 1542 1542 1544 1544 1544 1545 1546 1546 1546 1545 1545 1544 1544 1543 1543 1542 1541 1540 1539 1538 1537 1536 1535 1533 1532 1530 1529 1527 1525 1523 1521 1518 1516 1514 1512 1509 1506 1503 1500 1498
1461 1465 1468 1471 1474 1476 1478 1480 1482 1484 1487 1490 1493 1495 1497 1499 1501 1503 1504 1505 1507 1509 1511 1513 1515 1517 1518 1520 1520 1521 1522 1524 1526 1527 1529 1530 1531 1532 1533 1535 1536 1537 1539 1540 1541 1541 1542 1542 1543 1544 1545 1545 1545 1545 1544 1544 1543 1543 1542 1542 1541 1540 1540 1539 1538 1537 1535 1534 1532 1531 1530 1529 1527 1526 1524 1522 1519 1517 1514 1511 1509 1506 1504 1501 1499
1460 1463 1466 1469 1471 1474 1476 1478 1480 1482 1486 1489 1491 1493 1495 1498 1499 1501 1502 1504 1505 1507 1509 1511 1513 1515 1517 1519 1520 1519 1520 1522 1524 1526 1528 1529 1531 1532 1533 1534 1535 1537 1538 1539 1540 1541 1541 1542 1542 1543 1543 1544 1544 1544 1544 1544 1543 1542 1541 1541 1540 1539 1538 1538 1537 1535 1534 1534 1533 1532 1531 1529 1527 1526 1524 1522 1520 1518 1515 1512 1509 1506 1504 1502 1499
1459 1462 1464 1466 1469 1472 1474 1476 1478 1481 1484 1487 1489 1491 1494 1496 1497 1499 1500 1502 1504 1505 1507 1509 1511 1512 1514 1516 1518 1518 1519 1521 1523 1525 1527 1528 1530 1532 1532 1533 1535 1537 1538 1539 1540 1540 1540 1541 1542 1542 1542 1543 1544 1544 1543 1543 1543 1542 1541 1540 1540 1539 1538 1537 1537 1536 1535 1535 1534 1532 1530 1528 1527 1525 1524 1522 1520 1518 1515 1512 1509 1507 1504 1501 1498
1458 1461 1463 1465 1467 1470 1472 1474 1477 1480 1483 1485 1487 1489 1492 1494 1495 1497 1498 1500 1502 1504 1505 1507 1508 1509 1511 1513 1515 1516 1518 1520 1522 1524 1526 1527 1529 1531 1531 1532 1533 1534 1536 1538 1539 1539 1539 1540 1541 1542 1541 1542 1543 1543 1543 1543 1542 1542 1541 1540 1540 1540 1539 1538 1537 1536 1536 1535 1533 1531 1529 1527 1527 1526 1524 1522 1520 1518 1515 1511 1509 1506 1504 1501 1498
1457 1459 1461 1464 1466 1469 1470 1472 1475 1478 1481 1483 1485 1487 1490 1492 1493 1495 1497 1499 1500 1502 1504 1505 1506 1507 1508 1510 1511 1512 1514 1517 1520 1522 1524 1526 1528 1530 1531 1531 1531 1532 1533 1536 1537 1538 1538 1539 1540 1541 1540 1541 1542 1542 1542 1542 1542 1541 1540 1540 1540 1540 1539 1538 1537 1536 1535 1534 1532 1530 1527 1527 1527 1526 1524 1522 1520 1518 1515 1512 1509 1506 1504 1501 1499
1456 1458 1461 1463 1466 1468 1469 1471 1475 1477 1480 1482 1484 1486 1488 1490 1491 1493 1496 1497 1498 1500 1501 1502 1503 1505 1506 1508 1508 1508 1510 1514 1517 1518 1520 1524 1527 1529 1530 1530 1531 1531 1533 1534 1535 1536 1537 1537 1538 1539 1539 1540 1540 1540 1540 1541 1540 1540 1540 1539 1539 1539 1538 1537 1536 1535 1534 1533 1531 1529 1527 1527 1527 1526 1524 1522 1520 1518 1515 1512 1509 1507 1505 1502 1499
1455 1458 1461 1463 1465 1466 1468 1471 1473 1476 1478 1481 1483 1484 1486 1488 1490 1491 1493 1495 1496 1498 1499 1500 1502 1503 1504 1506 1506 1506 1508 1512 1515 1515 1517 1519 1522 1526 1529 1529 1529 1531 1532 1533 1534 1534 1535 1535 1536 1537 1537 1538 1539 1539 1539 1539 1539 1539 1539 1538 1537 1537 1536 1535 1535 1533 1533 1532 1530 1528 1527 1527 1527 1526 1524 1522 1520 1517 1515 1512 1510 1507 1505 1502 1500
1455 1458 1460 1462 1463 1465 1468 1470 1472 1474 1477 1479 1481 1482 1484 1486 1488 1489 1491 1493 1494 1495 1497 1499 1500 1501 1502 1504 1505 1505 1507 1510 1512 1513 1515 1517 1519 1523 1526 1527 1527 1527 1529 1532 1533 1533 1533 1532 1533 1535 1536 1536 1537 1537 1537 1538 1538 1538 1537 1537 1536 1536 1535 1534 1533 1532 1531 1530 1528 1527 1528 1527 1526 1525 1523 1521 1519 1517 1514 1512 1510 1508 1505 1503 1500
1454 1456 1459 1461 1462 1464 1466 1468 1470 1473 1475 1477 1479 1481 1483 1485 1487 1488 1490 1491 1492 1493 1495 1496 1498 1499 1501 1502 1503 1504 1505 1507 1510 1511 1513 1515 1516 1519 1522 1524 1524 1523 1526 1530 1532 1532 1532 1531 1531 1533 1534 1534 1535 1535 1535 1536 1536 1536 1536 1535 1535 1534 1533 1533 1532 1531 1530 1528 1527 1527 1527 1526 1525 1524 1523 1521 1519 1516 1514 1512 1510 1507 1505 1503 1501
1453 1455 1458 1460 1461 1462 1465 1467 1469 1472 1474 1476 1478 1480 1481 1483 1485 1486 1488 1489 1490 1491 1493 1494 1495 1497 1499 1500 1501 1502 1503 1505 1507 1509 1511 1513 1514 1516 1519 1521 1521 1521 1523 1527 1528 1529 1530 1529 1529 1530 1532 1532 1532 1533 1533 1534 1534 1534 1534 1534 1533 1533 1532 1532 1531 1530 1529 1527 1527 1527 1527 1526 1525 1523 1522 1520 1518 1516 1515 1512 1510 1507 1505 1503 1501
1452 1454 1456 1458 1459 1461 1463 1466 1469 1470 1472 1475 1476 1478 1479 1481 1482 1484 1486 1487 1488 1489 1491 1492 1494 1495 1497 1499 1500 1500 1501 1503 1505 1507 1509 1511 1512 1514 1516 1518 1519 1519 1521 1524 1525 1526 1527 1527 1528 1529 1530 1530 1531 1531 1531 1532 1532 1532 1532 1532 1532 1531 1530 1530 1529 1529 1527 1527 1527 1527 1526 1525 1524 1523 1521 1520 1518 1517 1515 1513 1510 1507 1505 1502 1500
1449 1451 1454 1456 1457 1460 1462 1465 1467 1469 1471 1473 1474 1476 1477 1479 1481 1482 1484 1485 1486 1488 1489 1491 1492 1493 1495 1497 1498 1498 1499 1500 1503 1505 1507 1509 1510 1512 1514 1516 1518 1518 1519 1521 1523 1524 1525 1526 1527 1528 1528 1529 1529 1530 1530 1530 1530 1530 1530 1530 1530 1530 1529 1529 1528 1527 1526 1526 1526 1526 1525 1524 1523 1522 1521 1520 1518 1517 1514 1512 1510 1508 1505 1503 1500
1447 1450 1452 1454 1456 1459 1461 1463 1466 1467 1469 1471 1472 1474 1475 1477 1479 1481 1481 1483 1484 1485 1487 1489 1490 1492 1493 1494 1495 1496 1497 1498 1500 1502 1504 1506 1507 1509 1511 1514 1516 1517 1518 1519 1521 1523 1524 1524 1525 1526 1526 1527 1528 1528 1528 1528 1528 1529 1529 1529 1529 1528 1527 1527 1527 1526 1526 1526 1525 1524 1524 1523 1522 1522 1521 1519 1518 1516 1514 1512 1510 1507 1505 1503 1500
1446 1448 1450 1453 1455 1457 1459 1462 1464 1465 1467 1469 1471 1472 1474 1475 1477 1478 1478 1480 1481 1483 1485 1486 1487 1489 1490 1491 1492 1494 1495 1496 1496 1499 1501 1503 1505 1507 1508 1510 1513 1515 1516 1518 1520 1521 1522 1522 1523 1523 1524 1525 1525 1526 1526 1527 1527 1527 1527 1527 1527 1527 1526 1526 1526 1525 1525 1525 1524 1523 1523 1522 1521 1521 1520 1519 1517 1515 1513 1511 1509 1507 1505 1503 1501
1444 1446 1448 1451 1454 1456 1458 1460 1462 1463 1465 1467 1468 1470 1472 1473 1475 1475 1476 1478 1479 1480 1482 1483 1484 1485 1487 1489 1491 1492 1493 1492 1492 1495 1498 1500 1503 1505 1506 1507 1510 1512 1514 1516 1517 1518 1519 1520 1520 1521 1522 1522 1523 1524 1524 1525 1525 1525 1526 1526 1526 1525 1524 1524 1524 1524 1524 1524 1523 1522 1521 1521 1520 1520 1519 1518 1516 1515 1513 1511 1509 1507 1504 1502 1500
1442 1444 1447 1449 1452 1454 1456 1458 1460 1461 1463 1464 1466 1468 1470 1472 1473 1473 1475 1476 1478 1479 1480 1481 1482 1484 1486 1488 1489 1489 1490 1489 1489 1492 1496 1498 1499 1501 1503 1504 1506 1508 1511 1513 1514 1515 1516 1517 1518 1519 1519 1520 1521 1522 1523 1523 1523 1524 1524 1524 1524 1523 1523 1523 1523 1523 1523 1523 1522 1521 1520 1520 1519 1519 1518 1517 1515 1514 1512 1510 1509 1506 1504 1502 1500
1441 1443 1445 1448 1450 1452 1454 1456 1457 1459 1461 1462 1464 1466 1468 1470 1471 1472 1473 1475 1476 1478 1479 1481 1482 1483 1485 1486 1487 1487 1488 1488 1488 1491 1494 1496 1497 1499 1500 1502 1504 1506 1508 1510 1511 1512 1513 1514 1515 1516 1517 1518 1519 1520 1520 1521 1521 1522 1522 1522 1522 1521 1521 1522 1522 1522 1522 1521 1521 1520 1519 1519 1518 1518 1517 1516 1514 1513 1511 1510 1508 1506 1504 1502 1500
1440 1442 1444 1446 1448 1450 1452 1454 1455 1457 1459 1460 1462 1463 1465 1468 1469 1470 1471 1473 1475 1476 1478 1480 1481 1482 1483 1484 1485 1486 1487 1487 1488 1490 1492 1494 1495 1496 1498 1500 1501 1503 1505 1507 1508 1509 1510 1511 1512 1513 1515 1516 1516 1517 1518 1519 1519 1520 1520 1520 1520 1520 1521 1521 1521 1520 1520 1520 1519 1518 1518 1518 1517 1516 1515 1514 1513 1512 1511 1509 1507 1506 1503 1502 1499
1439 1441 1443 1445 1447 1449 1451 1452 1453 1455 1457 1458 1460 1461 1463 1465 1467 1468 1469 1471 1473 1474 1476 1477 1479 1480 1481 1482 1483 1484 1485 1486 1487 1488 1490 1491 1493 1494 1495 1497 1498 1500 1502 1503 1504 1505 1507 1508 1509 1510 1512 1513 1514 1514 1515 1516 1517 1518 1518 1519 1519 1519 1519 1519 1519 1518 1518 1518 1517 1517 1517 1516 1516 1514 1514 1513 1512 1511 1510 1508 1507 1505 1503 1501 1499
1439 1440 1442 1444 1445 1447 1449 1451 1452 1453 1455 1456 1458 1460 1461 1462 1463 1465 1467 1469 1470 1472 1474 1475 1477 1478 1480 1480 1481 1482 1484 1485 1486 1487 1488 1489 1490 1491 1492 1494 1496 1497 1499 1500 1501 1502 1504 1505 1506 1508 1509 1510 1511 1512 1513 1514 1515 1515 1516 1517 1517 1517 1517 1517 1516 1516 1516 1515 1515 1515 1514 1514 1514 1513 1512 1512 1511 1510 1509 1507 1506 1504 1502 1501 1499
1438 1440 1442 1443 1444 1445 1447 1449 1451 1452 1453 1455 1456 1458 1458 1459 1460 1462 1464 1466 1468 1469 1472 1473 1475 1477 1478 1479 1480 1481 1483 1484 1485 1486 1486 1487 1488 1489 1490 1492 1493 1494 1495 1497 1498 1500 1501 1502 1503 1505 1506 1508 1509 1510 1511 1512 1513 1513 1514 1515 1515 1515 1515 1515 1515 1514 1514 1514 1513 1513 1512 1512 1512 1511 1511 1510 1509 1508 1507 1505 1504 1503 1502 1500 1498
1437 1440 1441 1443 1444 1445 1446 1448 1449 1450 1452 1453 1455 1456 1457 1457 1459 1460 1462 1463 1465 1467 1469 1470 1472 1474 1476 1477 1478 1479 1481 1482 1483 1484 1484 1485 1486 1487 1488 1489 1490 1491 1492 1494 1496 1498 1499 1500 1501 1503 1504 1506 1507 1508 1508 1509 1510 1511 1512 1512 1513 1513 1513 1513 1513 1513 1512 1512 1511 1511 1511 1511 1511 1510 1509 1508 1507 1506 1505 1504 1503 1502 1501 1499 1497
1437 1438 1440 1442 1444 1445 1445 1446 1448 1449 1450 1452 1453 1454 1455 1456 1457 1458 1460 1462 1464 1465 1466 1468 1469 1471 1473 1474 1476 1477 1479 1480 1481 1482 1482 1482 1483 1484 1485 1486 1487 1489 1490 1492 1494 1495 1497 1498 1499 1501 1502 1504 1505 1505 1506 1506 1507 1508 1509 1510 1510 1511 1511 1511 1511 1510 1510 1510 1509 1509 1509 1509 1508 1508 1507 1506 1505 1504 1503 1503 1502 1501 1500 1498 1496
1438 1438 1439 1441 1443 1444 1445 1445 1446 1448 1449 1450 1452 1453 1454 1455 1456 1457 1458 1461 1462 1463 1464 1465 1466 1468 1470 1471 1473 1475 1476 1478 1479 1480 1480 1480 1481 1482 1483 1484 1485 1487 1489 1490 1492 1493 1495 1496 1498 1499 1500 1501 1503 1503 1503 1504 1505 1506 1506 1507 1508 1509 1509 1509 1509 1508 1508 1507 1507 1507 1507 1506 1506 1505 1505 1504 1502 1502 1502 1502 1501 1499 1498 1497 1495
1437 1438 1439 1440 1442 1444 1444 1445 1445 1447 1448 1449 1451 1452 1453 1454 1455 1456 1457 1459 1460 1461 1462 1463 1464 1466 1468 1469 1470 1472 1473 1474 1475 1477 1478 1478 1479 1480 1481 1482 1484 1485 1487 1488 1490 1491 1492 1494 1495 1497 1498 1499 1500 1500 1501 1501 1502 1503 1504 1505 1506 1507 1507 1507 1506 1506 1505 1505 1505 1504 1504 1504 1503 1503 1503 1502 1500 1500 1500 1500 1499 1498 1497 1495 1493
1436 1437 1439 1440 1441 1442 1443 1444 1445 1446 1447 1448 1450 1450 1451 1453 1454 1455 1456 1457 1457 1458 1459 1460 1461 1463 1465 1466 1468 1469 1470 1471 1471 1473 1475 1476 1477 1478 1479 1480 1481 1483 1485 1486 1488 1489 1490 1492 1493 1494 1495 1496 1497 1498 1498 1499 1499 1500 1502 1503 1504 1504 1504 1504 1504 1504 1503 1503 1502 1502 1502 1501 1501 1501 1501 1500 1499 1499 1498 1498 1497 1496 1495 1493 1492
1436 1437 1439 1440 1440 1441 1442 1443 1444 1445 1446 1447 1449 1449 1450 1451 1452 1453 1455 1455 1456 1456 1458 1458 1458 1460 1462 1464 1465 1466 1467 1468 1469 1470 1472 1473 1474 1476 1476 1477 1479 1480 1482 1484 1485 1486 1488 1489 1490 1491 1493 1494 1495 1496 1496 1496 1497 1498 1499 1500 1501 1501 1501 1501 1501 1501 1501 1500 1500 1500 1500 1500 1499 1499 1498 1498 1497 1497 1496 1495 1495 1494 1493 1492 1490
1436 1438 1438 1439 1439 1440 1441 1442 1443 1444 1445 1446 1447 1448 1449 1450 1451 1452 1453 1454 1454 1455 1456 1457 1457 1458 1460 1461 1463 1464 1465 1466 1467 1468 1469 1470 1471 1473 1474 1475 1476 1477 1479 1481 1483 1484 1485 1487 1488 1489 1491 1492 1493 1493 1494 1494 1495 1496 1497 1498 1498 1498 1499 1499 1499 1499 1498 1498 1498 1497 1497 1497 1497 1496 1495 1495 1495 1494 1494 1493 1493 1492 1491 1490 1489
1435 1436 1437 1438 1439 1439 1440 1441 1442 1443 1444 1445 1446 1447 1447 1448 1449 1450 1451 1451 1452 1453 1454 1455 1457 1458 1458 1459 1460 1462 1463 1464 1465 1466 1466 1467 1468 1470 1471 1472 1474 1475 1477 1478 1480 1482 1483 1484 1486 1487 1488 1489 1490 1491 1492 1492 1493 1493 1494 1494 1495 1495 1495 1495 1496 1496 1496 1496 1495 1495 1495 1494 1494 1493 1493 1493 1492 1492 1491 1491 1490 1490 1489 1487 1486
1434 1435 1436 1437 1438 1438 1439 1440 1441 1442 1443 1444 1445 1445 1446 1446 1447 1448 1449 1449 1451 1451 1452 1453 1455 1456 1457 1458 1459 1460 1461 1461 1462 1463 1464 1464 1465 1466 1468 1470 1471 1472 1474 1475 1477 1479 1481 1482 1483 1485 1486 1487 1488 1488 1489 1490 1490 1491 1491 1491 1491 1491 1492 1492 1493 1493 1493 1493 1493 1492 1492 1491 1491 1491 1490 1490 1490 1489 1489 1488 1488 1487 1486 1485 1484
1433 1434 1435 1436 1437 1437 1438 1439 1440 1441 1442 1443 1444 1444 1445 1445 1446 1446 1447 1448 1449 1450 1451 1452 1453 1454 1455 1456 1457 1457 1458 1459 1460 1461 1461 1461 1461 1462 1465 1466 1468 1469 1471 1472 1474 1476 1477 1479 1480 1482 1483 1484 1485 1486 1486 1487 1487 1488 1488 1488 1488 1488 1489 1489 1490 1490 1490 1491 1490 1489 1489 1488 1488 1488 1488 1488 1487 1487 1486 1486 1485 1484 1484 1483 1482
1432 1433 1434 1435 1436 1437 1437 1438 1439 1440 1441 1442 1443 1443 1444 1445 1445 1445 1446 1446 1447 1448 1449 1450 1451 1452 1453 1454 1454 1455 1456 1457 1458 1459 1459 1459 1459 1460 1461 1463 1465 1466 1467 1469 1471 1473 1474 1476 1477 1478 1479 1481 1482 1482 1483 1484 1484 1485 1485 1485 1485 1485 1485 1486 1487 1487 1488 1488 1487 1486 1486 1485 1485 1485 1485 1485 1485 1484 1484 1483 1483 1482 1481 1480 1479
1431 1432 1434 1435 1435 1436 1437 1438 1438 1439 1440 1441 1441 1442 1443 1444 1445 1445 1445 1445 1445 1446 1447 1448 1449 1450 1451 1451 1452 1453 1454 1455 1456 1457 1457 1458 1458 1458 1459 1461 1462 1463 1464 1466 1468 1470 1471 1473 1474 1475 1476 1477 1478 1479 1480 1480 1481 1482 1482 1482 1482 1482 1483 1484 1484 1484 1485 1485 1484 1483 1483 1482 1482 1482 1482 1482 1482 1481 1481 1480 1480 1479 1478 1477 1476
1431 1432 1433 1434 1435 1436 1436 1437 1438 1438 1439 1440 1441 1441 1442 1443 1443 1443 1444 1444 1444 1445 1445 1446 1447 1448 1449 1449 1450 1451 1452 1453 1454 1455 1456 1456 1456 1457 1457 1458 1460 1461 1462 1464 1465 1467 1468 1470 1471 1472 1473 1474 1475 1476 1476 1477 1478 1479 1479 1479 1480 1480 1480 1481 1481 1481 1482 1481 1481 1481 1480 1480 1480 1480 1479 1479 1479 1478 1478 1477 1476 1475 1475 1474 1472
1431 1432 1432 1433 1434 1435 1436 1437 1438 1438 1438 1439 1440 1440 1441 1442 1442 1443 1443 1443 1443 1443 1444 1445 1446 1447 1447 1448 1448 1449 1450 1451 1451 1452 1453 1454 1455 1455 1456 1456 1458 1459 1460 1461 1463 1464 1465 1466 1467 1469 1470 1471 1472 1472 1473 1474 1475 1476 1476 1477 1477 1477 1478 1478 1479 1479 1479 1479 1478 1478 1477 1477 1477 1477 1477 1476 1476 1475 1474 1474 1473 1472 1471 1470 1469
1432 1432 1432 1433 1434 1435 1435 1436 1437 1437 1438 1439 1439 1440 1440 1441 1442 1442 1442 1442 1442 1442 1443 1444 1445 1446 1446 1447 1447 1448 1448 1448 1449 1450 1450 1451 1452 1454 1454 1455 1456 1457 1458 1459 1460 1461 1462 1463 1465 1466 1467 1468 1469 1469 1470 1471 1472 1472 1473 1474 1474 1475 1475 1475 1476 1476 1476 1476 1476 1476 1475 1475 1474 1474 1474 1473 1473 1472 1471 1470 1469 1468 1468 1467 1466
1431 1432 1432 1433 1434 1434 1435 1436 1436 1436 1437 1438 1438 1439 1439 1440 1440 1440 1440 1441 1441 1441 1442 1443 1444 1444 1445 1445 1446 1446 1447 1447 1447 1448 1448 1449 1450 1452 1453 1454 1455 1455 1456 1457 1457 1458 1459 1461 1462 1463 1464 1465 1466 1466 1467 1468 1469 1469 1470 1471 1471 1472 1472 1472 1473 1473 1473 1473 1473 1473 1472 1472 1471 1471 1470 1470 1469 1468 1467 1467 1466 1465 1464 1464 1463
1430 1431 1431 1432 1433 1434 1434 1435 1435 1436 1436 1437 1438 1438 1438 1438 1439 1438 1438 1439 1440 1440 1441 1441 1441 1442 1443 1444 1445 1445 1446 1446 1447 1446 1447 1447 1449 1450 1451 1452 1453 1453 1454 1454 1454 1455 1457 1458 1459 1460 1461 1462 1463 1464 1464 1465 1466 1467 1467 1468 1468 1469 1469 1470 1470 1470 1470 1470 1469 1469 1468 1468 1467 1467 1466 1466 1465 1464 1463 1463 1462 1461 1461 1460 1460